| time (UTC) | temp F | wind direction | speed MPH | gust MPH | rain 1hr in | rain 24hr in | rain mn in | humidity % | barometer mb |
| 20260902093304 | 85 | 140 | 0.0 | 2.0 | 0.00 | 0.00 | 0.00 | 74 | 1016.0 |
| 20260902092305 | 84 | 142 | 0.0 | 5.0 | 0.00 | 0.00 | 0.00 | 76 | 1016.1 |
| 20260902091804 | 83 | 136 | 0.0 | 2.0 | 0.00 | 0.00 | 0.00 | 76 | 1016.1 |
| 20260902091304 | 83 | 142 | 0.0 | 2.0 | 0.00 | 0.00 | 0.00 | 76 | 1016.1 |
| 20260902090805 | 83 | 145 | 0.0 | 0.0 | 0.00 | 0.00 | 0.00 | 76 | 1016.0 |
| 20260902090304 | 83 | 145 | 0.0 | 0.0 | 0.00 | 0.00 | 0.00 | 75 | 1016.0 |
| 20260902085804 | 83 | 145 | 1.0 | 3.0 | 0.00 | 0.00 | 0.00 | 75 | 1016.0 |
| 20260902085306 | 83 | 143 | 0.0 | 1.0 | 0.00 | 0.00 | 0.00 | 75 | 1016.0 |
| 20260902084805 | 83 | 149 | 1.0 | 2.0 | 0.00 | 0.00 | 0.00 | 76 | 1016.0 |
| 20260902084304 | 83 | 159 | 0.0 | 3.0 | 0.00 | 0.00 | 0.00 | 76 | 1015.9 |
| 20260902083804 | 82 | 209 | 0.0 | 0.0 | 0.00 | 0.00 | 0.00 | 76 | 1015.8 |
| 20260902083304 | 82 | 284 | 0.0 | 0.0 | 0.00 | 0.00 | 0.00 | 76 | 1015.6 |
| 20260902082805 | 82 | 284 | 0.0 | 0.0 | 0.00 | 0.00 | 0.00 | 77 | 1015.6 |
| 20260902081804 | 81 | 284 | 0.0 | 0.0 | 0.00 | 0.00 | 0.00 | 79 | 1015.5 |
| 20260902081304 | 80 | 284 | 0.0 | 0.0 | 0.00 | 0.00 | 0.00 | 79 | 1015.4 |
| 20260902080805 | 80 | 284 | 0.0 | 0.0 | 0.00 | 0.00 | 0.00 | 80 | 1015.3 |
| 20260902080304 | 80 | 284 | 0.0 | 0.0 | 0.00 | 0.00 | 0.00 | 80 | 1015.3 |
| 20260902075804 | 80 | 284 | 0.0 | 0.0 | 0.00 | 0.00 | 0.00 | 79 | 1015.3 |
| 20260902075306 | 80 | 284 | 0.0 | 0.0 | 0.00 | 0.00 | 0.00 | 79 | 1015.3 |
| 20260902074805 | 80 | 284 | 0.0 | 0.0 | 0.00 | 0.00 | 0.00 | 79 | 1015.3 |
| 20260902074305 | 80 | 284 | 0.0 | 0.0 | 0.00 | 0.00 | 0.00 | 79 | 1015.3 |
| 20260902073804 | 79 | 284 | 0.0 | 2.0 | 0.00 | 0.00 | 0.00 | 80 | 1015.3 |
| 20260902072805 | 78 | 286 | 0.0 | 1.0 | 0.00 | 0.00 | 0.00 | 81 | 1015.3 |
| 20260902072309 | 78 | 286 | 0.0 | 1.0 | 0.00 | 0.00 | 0.00 | 82 | 1015.2 |
| 20260902071805 | 77 | 286 | 0.0 | 1.0 | 0.00 | 0.00 | 0.00 | 83 | 1015.1 |
| 20260902071304 | 77 | 287 | 0.0 | 0.0 | 0.00 | 0.00 | 0.00 | 83 | 1015.1 |
| 20260902070804 | 76 | 286 | 0.0 | 1.0 | 0.00 | 0.00 | 0.00 | 84 | 1015.0 |
| 20260902070304 | 76 | 290 | 0.0 | 0.0 | 0.00 | 0.00 | 0.00 | 84 | 1014.9 |
| 20260902065804 | 76 | 290 | 0.0 | 0.0 | 0.00 | 0.00 | 0.00 | 85 | 1014.9 |
| 20260902065306 | 75 | 291 | 0.0 | 1.0 | 0.00 | 0.00 | 0.00 | 85 | 1014.8 |
| 20260902064804 | 75 | 292 | 0.0 | 0.0 | 0.00 | 0.00 | 0.00 | 85 | 1014.8 |
| 20260902064304 | 75 | 292 | 0.0 | 0.0 | 0.00 | 0.00 | 0.00 | 86 | 1014.8 |
| 20260902063804 | 75 | 292 | 0.0 | 0.0 | 0.00 | 0.00 | 0.00 | 86 | 1014.7 |
| 20260902062804 | 74 | 291 | 0.0 | 0.0 | 0.00 | 0.00 | 0.00 | 87 | 1014.5 |
| 20260902062306 | 74 | 291 | 0.0 | 0.0 | 0.00 | 0.00 | 0.00 | 87 | 1014.6 |
| 20260902061804 | 74 | 291 | 0.0 | 0.0 | 0.00 | 0.00 | 0.00 | 87 | 1014.5 |
| 20260902061304 | 74 | 291 | 0.0 | 0.0 | 0.00 | 0.00 | 0.00 | 87 | 1014.4 |
| 20260902055307 | 74 | 291 | 0.0 | 0.0 | 0.00 | 0.00 | 0.00 | 87 | 1014.4 |
| 20260902054804 | 74 | 291 | 0.0 | 0.0 | 0.00 | 0.00 | 0.00 | 87 | 1014.3 |
| 20260902054304 | 74 | 291 | 0.0 | 0.0 | 0.00 | 0.00 | 0.00 | 87 | 1014.4 |
| 20260902053304 | 73 | 291 | 0.0 | 0.0 | 0.00 | 0.00 | 0.00 | 87 | 1014.4 |
| 20260902052804 | 73 | 291 | 0.0 | 0.0 | 0.00 | 0.00 | 0.00 | 87 | 1014.3 |
| 20260902052306 | 73 | 291 | 0.0 | 0.0 | 0.00 | 0.00 | 0.00 | 88 | 1014.3 |
| 20260902051305 | 73 | 292 | 0.0 | 0.0 | 0.00 | 0.00 | 0.00 | 88 | 1014.2 |
| 20260902045804 | 73 | 100 | 0.0 | 0.0 | 0.00 | 0.00 | 0.00 | 89 | 1014.0 |
| 20260902045306 | 73 | 100 | 0.0 | 0.0 | 0.00 | 0.00 | 0.00 | 89 | 1014.0 |
| 20260902044805 | 73 | 100 | 0.0 | 0.0 | 0.00 | 0.00 | 0.00 | 89 | 1013.9 |
| 20260902043804 | 74 | 100 | 0.0 | 0.0 | 0.00 | 0.00 | 0.00 | 90 | 1013.9 |
| 20260902043305 | 74 | 100 | 0.0 | 0.0 | 0.00 | 0.00 | 0.00 | 90 | 1013.9 |
| 20260902042804 | 74 | 100 | 0.0 | 0.0 | 0.00 | 0.00 | 0.00 | 90 | 1013.9 |
| 20260902042308 | 74 | 100 | 0.0 | 0.0 | 0.00 | 0.00 | 0.00 | 90 | 1013.8 |
| 20260902041804 | 74 | 100 | 0.0 | 0.0 | 0.00 | 0.00 | 0.00 | 90 | 1013.9 |
| 20260902041304 | 74 | 100 | 0.0 | 0.0 | 0.00 | 0.00 | 0.00 | 90 | 1013.8 |
| 20260902040805 | 74 | 100 | 0.0 | 0.0 | 0.00 | 0.00 | 0.00 | 90 | 1013.9 |
| 20260902040305 | 74 | 100 | 0.0 | 0.0 | 0.00 | 0.00 | 0.00 | 90 | 1013.9 |
| 20260902035804 | 75 | 100 | 0.0 | 0.0 | 0.00 | 0.00 | 0.00 | 90 | 1013.9 |
| 20260902035305 | 75 | 100 | 0.0 | 0.0 | 0.00 | 0.00 | 0.00 | 90 | 1013.9 |
| 20260902034804 | 75 | 100 | 0.0 | 0.0 | 0.00 | 0.00 | 0.00 | 90 | 1013.9 |
| 20260902034304 | 75 | 100 | 0.0 | 0.0 | 0.00 | 0.00 | 0.00 | 90 | 1013.8 |
| 20260902033304 | 75 | 100 | 0.0 | 0.0 | 0.00 | 0.00 | 0.00 | 90 | 1013.9 |
| 20260902032805 | 75 | 100 | 0.0 | 0.0 | 0.00 | 0.00 | 0.00 | 90 | 1014.0 |
| 20260902032306 | 75 | 100 | 0.0 | 0.0 | 0.00 | 0.00 | 0.00 | 90 | 1014.0 |
| 20260902031804 | 75 | 100 | 0.0 | 0.0 | 0.00 | 0.00 | 0.00 | 90 | 1014.0 |
| 20260902031305 | 75 | 100 | 0.0 | 0.0 | 0.00 | 0.00 | 0.00 | 90 | 1014.1 |
| 20260902030804 | 75 | 100 | 0.0 | 0.0 | 0.00 | 0.00 | 0.00 | 90 | 1014.1 |
| 20260902030304 | 75 | 100 | 0.0 | 0.0 | 0.00 | 0.00 | 0.00 | 90 | 1014.1 |
| 20260902025804 | 75 | 100 | 0.0 | 0.0 | 0.00 | 0.00 | 0.00 | 90 | 1014.2 |
| 20260902025306 | 76 | 100 | 0.0 | 0.0 | 0.00 | 0.00 | 0.00 | 90 | 1014.1 |
| 20260902024804 | 76 | 100 | 0.0 | 0.0 | 0.00 | 0.00 | 0.00 | 90 | 1014.1 |
| 20260902024304 | 76 | 100 | 0.0 | 0.0 | 0.00 | 0.00 | 0.00 | 90 | 1014.1 |
| 20260902023804 | 76 | 100 | 0.0 | 0.0 | 0.00 | 0.00 | 0.00 | 90 | 1014.2 |
| 20260902023304 | 76 | 100 | 0.0 | 0.0 | 0.00 | 0.00 | 0.00 | 90 | 1014.2 |
| 20260902022306 | 76 | 100 | 0.0 | 0.0 | 0.00 | 0.00 | 0.00 | 90 | 1014.1 |
| 20260902021304 | 76 | 100 | 0.0 | 0.0 | 0.00 | 0.00 | 0.00 | 90 | 1014.2 |
| 20260902020804 | 76 | 100 | 0.0 | 0.0 | 0.00 | 0.00 | 0.00 | 90 | 1014.1 |
| 20260902020304 | 76 | 100 | 0.0 | 0.0 | 0.00 | 0.00 | 0.00 | 90 | 1014.0 |
| 20260902015804 | 76 | 100 | 0.0 | 0.0 | 0.00 | 0.00 | 0.00 | 90 | 1014.1 |
| 20260902015306 | 76 | 100 | 0.0 | 0.0 | 0.00 | 0.00 | 0.00 | 90 | 1014.2 |
| 20260902014804 | 76 | 100 | 0.0 | 0.0 | 0.00 | 0.00 | 0.00 | 90 | 1014.3 |
| 20260902014304 | 76 | 100 | 0.0 | 0.0 | 0.00 | 0.00 | 0.00 | 90 | 1014.4 |
| 20260902013804 | 76 | 100 | 0.0 | 0.0 | 0.00 | 0.00 | 0.00 | 90 | 1014.3 |
| 20260902013304 | 76 | 100 | 0.0 | 0.0 | 0.00 | 0.00 | 0.00 | 89 | 1014.3 |
| 20260902012804 | 76 | 100 | 0.0 | 0.0 | 0.00 | 0.00 | 0.00 | 89 | 1014.4 |
| 20260902012309 | 76 | 99 | 0.0 | 0.0 | 0.00 | 0.00 | 0.00 | 89 | 1014.4 |
| 20260902011305 | 76 | 100 | 0.0 | 0.0 | 0.00 | 0.00 | 0.00 | 89 | 1014.5 |
| 20260902010804 | 76 | 100 | 0.0 | 0.0 | 0.00 | 0.00 | 0.00 | 89 | 1014.5 |
| 20260902010304 | 76 | 99 | 0.0 | 0.0 | 0.00 | 0.00 | 0.00 | 89 | 1014.5 |
| 20260902004804 | 76 | 144 | 0.0 | 0.0 | 0.00 | 0.00 | 0.00 | 89 | 1014.4 |
| 20260902004304 | 76 | 144 | 0.0 | 0.0 | 0.00 | 0.00 | 0.00 | 89 | 1014.5 |
| 20260902003805 | 76 | 144 | 0.0 | 0.0 | 0.00 | 0.00 | 0.00 | 89 | 1014.6 |
| 20260902003304 | 76 | 144 | 0.0 | 0.0 | 0.00 | 0.00 | 0.00 | 89 | 1014.6 |
| 20260902002804 | 76 | 144 | 0.0 | 0.0 | 0.00 | 0.00 | 0.00 | 89 | 1014.5 |
| 20260902002306 | 76 | 144 | 0.0 | 1.0 | 0.00 | 0.00 | 0.00 | 90 | 1014.5 |
| 20260902001804 | 76 | 144 | 0.0 | 1.0 | 0.00 | 0.00 | 0.00 | 90 | 1014.6 |
| 20260902001304 | 76 | 143 | 0.0 | 0.0 | 0.00 | 0.00 | 0.00 | 90 | 1014.6 |
| 20260902000804 | 76 | 143 | 0.0 | 0.0 | 0.00 | 0.00 | 0.00 | 89 | 1014.7 |
| 20260901235804 | 76 | 143 | 0.0 | 0.0 | 0.00 | 0.00 | 0.00 | 89 | 1014.6 |
| 20260901235307 | 76 | 143 | 0.0 | 0.0 | 0.00 | 0.00 | 0.00 | 89 | 1014.6 |
| 20260901234804 | 76 | 143 | 0.0 | 0.0 | 0.00 | 0.00 | 0.00 | 89 | 1014.5 |
| 20260901234304 | 76 | 143 | 0.0 | 0.0 | 0.00 | 0.00 | 0.00 | 89 | 1014.5 |
| 20260901233804 | 76 | 143 | 0.0 | 0.0 | 0.00 | 0.00 | 0.00 | 89 | 1014.6 |
| 20260901233304 | 76 | 143 | 0.0 | 0.0 | 0.00 | 0.00 | 0.00 | 89 | 1014.6 |
| 20260901232804 | 76 | 143 | 0.0 | 0.0 | 0.00 | 0.00 | 0.00 | 89 | 1014.5 |
| 20260901232306 | 76 | 143 | 0.0 | 0.0 | 0.00 | 0.00 | 0.00 | 89 | 1014.5 |
| 20260901231804 | 77 | 143 | 0.0 | 0.0 | 0.00 | 0.00 | 0.00 | 88 | 1014.5 |
| 20260901231304 | 77 | 142 | 0.0 | 0.0 | 0.00 | 0.00 | 0.00 | 88 | 1014.5 |
| 20260901230804 | 77 | 142 | 0.0 | 0.0 | 0.00 | 0.00 | 0.00 | 88 | 1014.4 |
| 20260901230304 | 77 | 142 | 0.0 | 0.0 | 0.00 | 0.00 | 0.00 | 88 | 1014.4 |
| 20260901225804 | 78 | 142 | 0.0 | 0.0 | 0.00 | 0.00 | 0.00 | 88 | 1014.4 |
| 20260901225306 | 78 | 142 | 0.0 | 0.0 | 0.00 | 0.00 | 0.00 | 88 | 1014.5 |
| 20260901224804 | 78 | 142 | 0.0 | 0.0 | 0.00 | 0.00 | 0.00 | 88 | 1014.5 |
| 20260901224304 | 78 | 142 | 0.0 | 0.0 | 0.00 | 0.00 | 0.00 | 88 | 1014.4 |
| 20260901223804 | 78 | 142 | 0.0 | 0.0 | 0.00 | 0.00 | 0.00 | 88 | 1014.5 |
| 20260901223304 | 78 | 142 | 0.0 | 0.0 | 0.00 | 0.00 | 0.00 | 88 | 1014.4 |
| 20260901222306 | 78 | 142 | 0.0 | 0.0 | 0.00 | 0.00 | 0.00 | 87 | 1014.4 |
| 20260901221304 | 78 | 142 | 0.0 | 0.0 | 0.00 | 0.00 | 0.00 | 87 | 1014.4 |
| 20260901220816 | 78 | 142 | 0.0 | 0.0 | 0.00 | 0.00 | 0.00 | 87 | 1014.3 |
| 20260901220305 | 78 | 142 | 0.0 | 0.0 | 0.00 | 0.00 | 0.00 | 86 | 1014.4 |
| 20260901215804 | 79 | 142 | 0.0 | 0.0 | 0.00 | 0.00 | 0.00 | 86 | 1014.3 |
| 20260901215306 | 79 | 142 | 0.0 | 0.0 | 0.00 | 0.00 | 0.00 | 86 | 1014.3 |
| 20260901214304 | 79 | 142 | 0.0 | 0.0 | 0.00 | 0.00 | 0.00 | 85 | 1014.3 |
| 20260901213804 | 79 | 142 | 0.0 | 0.0 | 0.00 | 0.00 | 0.00 | 85 | 1014.3 |
| 20260901213304 | 79 | 142 | 0.0 | 0.0 | 0.00 | 0.00 | 0.00 | 85 | 1014.3 |
| 20260901212804 | 79 | 142 | 0.0 | 0.0 | 0.00 | 0.00 | 0.00 | 85 | 1014.4 |
| 20260901212306 | 79 | 142 | 0.0 | 0.0 | 0.00 | 0.00 | 0.00 | 85 | 1014.4 |
| 20260901211304 | 79 | 142 | 0.0 | 0.0 | 0.00 | 0.00 | 0.00 | 85 | 1014.4 |
| 20260901210804 | 80 | 142 | 0.0 | 0.0 | 0.00 | 0.00 | 0.00 | 85 | 1014.4 |
| 20260901210304 | 80 | 142 | 0.0 | 0.0 | 0.00 | 0.00 | 0.00 | 84 | 1014.3 |
| 20260901205804 | 80 | 142 | 0.0 | 0.0 | 0.00 | 0.00 | 0.00 | 84 | 1014.2 |
| 20260901205306 | 80 | 142 | 0.0 | 0.0 | 0.00 | 0.00 | 0.00 | 84 | 1014.2 |
| 20260901204804 | 80 | 142 | 0.0 | 0.0 | 0.00 | 0.00 | 0.00 | 84 | 1014.2 |
| 20260901204304 | 80 | 142 | 0.0 | 0.0 | 0.00 | 0.00 | 0.00 | 84 | 1014.2 |
| 20260901203804 | 80 | 142 | 0.0 | 0.0 | 0.00 | 0.00 | 0.00 | 84 | 1014.2 |
| 20260901203304 | 80 | 142 | 0.0 | 0.0 | 0.00 | 0.00 | 0.00 | 84 | 1014.0 |
| 20260901202804 | 80 | 142 | 0.0 | 0.0 | 0.00 | 0.00 | 0.00 | 84 | 1014.0 |
| 20260901201804 | 80 | 142 | 0.0 | 0.0 | 0.00 | 0.00 | 0.00 | 83 | 1014.0 |
| 20260901201304 | 80 | 142 | 0.0 | 0.0 | 0.00 | 0.00 | 0.00 | 83 | 1014.0 |
| 20260901200804 | 80 | 142 | 0.0 | 0.0 | 0.00 | 0.00 | 0.00 | 83 | 1013.9 |
| 20260901200304 | 80 | 142 | 0.0 | 0.0 | 0.00 | 0.00 | 0.00 | 83 | 1013.8 |
| 20260901195804 | 80 | 142 | 0.0 | 0.0 | 0.00 | 0.00 | 0.00 | 83 | 1013.7 |
| 20260901195306 | 80 | 142 | 0.0 | 0.0 | 0.00 | 0.00 | 0.00 | 82 | 1013.7 |
| 20260901194804 | 80 | 142 | 0.0 | 0.0 | 0.00 | 0.00 | 0.00 | 82 | 1013.5 |
| 20260901194304 | 80 | 142 | 0.0 | 0.0 | 0.00 | 0.00 | 0.00 | 82 | 1013.3 |
| 20260901193804 | 80 | 142 | 0.0 | 0.0 | 0.00 | 0.00 | 0.00 | 82 | 1013.5 |
| 20260901193304 | 80 | 142 | 0.0 | 0.0 | 0.00 | 0.00 | 0.00 | 82 | 1013.5 |
| 20260901192804 | 80 | 142 | 0.0 | 0.0 | 0.00 | 0.00 | 0.00 | 82 | 1013.4 |
| 20260901192306 | 80 | 142 | 0.0 | 0.0 | 0.00 | 0.00 | 0.00 | 82 | 1013.3 |
| 20260901191803 | 80 | 142 | 0.0 | 0.0 | 0.00 | 0.00 | 0.00 | 81 | 1013.2 |
| 20260901191304 | 81 | 142 | 0.0 | 0.0 | 0.00 | 0.00 | 0.00 | 81 | 1013.1 |
| 20260901190304 | 81 | 142 | 0.0 | 0.0 | 0.00 | 0.00 | 0.00 | 80 | 1012.9 |
| 20260901185804 | 81 | 142 | 0.0 | 0.0 | 0.00 | 0.00 | 0.00 | 80 | 1012.8 |
| 20260901185306 | 81 | 142 | 0.0 | 0.0 | 0.00 | 0.00 | 0.00 | 80 | 1012.8 |
| 20260901184804 | 81 | 142 | 0.0 | 0.0 | 0.00 | 0.00 | 0.00 | 80 | 1012.8 |
| 20260901184304 | 81 | 142 | 0.0 | 0.0 | 0.00 | 0.00 | 0.00 | 80 | 1012.7 |
| 20260901183803 | 81 | 142 | 0.0 | 0.0 | 0.00 | 0.00 | 0.00 | 80 | 1012.6 |
| 20260901183304 | 81 | 142 | 0.0 | 0.0 | 0.00 | 0.00 | 0.00 | 80 | 1012.6 |
| 20260901182305 | 82 | 142 | 0.0 | 5.0 | 0.00 | 0.00 | 0.00 | 79 | 1012.5 |
| 20260901181803 | 82 | 150 | 0.0 | 2.0 | 0.00 | 0.00 | 0.00 | 79 | 1012.5 |
| 20260901181304 | 82 | 150 | 0.0 | 1.0 | 0.00 | 0.00 | 0.00 | 79 | 1012.7 |
| 20260901180803 | 82 | 150 | 0.0 | 2.0 | 0.00 | 0.00 | 0.00 | 78 | 1012.7 |
| 20260901180304 | 82 | 148 | 1.0 | 5.0 | 0.00 | 0.00 | 0.00 | 78 | 1012.7 |
| 20260901175804 | 82 | 138 | 1.0 | 2.0 | 0.00 | 0.00 | 0.00 | 78 | 1012.6 |
| 20260901175305 | 82 | 137 | 1.0 | 3.0 | 0.00 | 0.00 | 0.00 | 77 | 1012.7 |
| 20260901174804 | 82 | 140 | 0.0 | 2.0 | 0.00 | 0.00 | 0.00 | 77 | 1012.7 |
| 20260901174303 | 83 | 137 | 0.0 | 2.0 | 0.00 | 0.00 | 0.00 | 76 | 1012.8 |
| 20260901173804 | 83 | 136 | 1.0 | 5.0 | 0.00 | 0.00 | 0.00 | 76 | 1012.8 |
| 20260901172803 | 83 | 132 | 1.0 | 5.0 | 0.00 | 0.00 | 0.00 | 75 | 1012.8 |
| 20260901171803 | 84 | 143 | 1.0 | 3.0 | 0.00 | 0.00 | 0.00 | 74 | 1012.7 |
| 20260901171304 | 84 | 142 | 1.0 | 3.0 | 0.00 | 0.00 | 0.00 | 73 | 1012.7 |
| 20260901170804 | 84 | 140 | 1.0 | 5.0 | 0.00 | 0.00 | 0.00 | 73 | 1012.7 |
| 20260901170305 | 84 | 139 | 0.0 | 3.0 | 0.00 | 0.00 | 0.00 | 72 | 1012.6 |
| 20260901165306 | 85 | 129 | 0.0 | 2.0 | 0.00 | 0.00 | 0.00 | 71 | 1012.7 |
| 20260901164805 | 85 | 154 | 1.0 | 3.0 | 0.00 | 0.00 | 0.00 | 71 | 1012.6 |
| 20260901164305 | 85 | 125 | 1.0 | 5.0 | 0.00 | 0.00 | 0.00 | 71 | 1012.7 |
| 20260901163305 | 85 | 138 | 0.0 | 5.0 | 0.00 | 0.00 | 0.00 | 71 | 1012.6 |
| 20260901162306 | 85 | 126 | 0.0 | 2.0 | 0.00 | 0.00 | 0.00 | 72 | 1012.7 |
| 20260901161805 | 84 | 129 | 0.0 | 2.0 | 0.00 | 0.00 | 0.00 | 73 | 1012.7 |
| 20260901161305 | 84 | 127 | 0.0 | 3.0 | 0.00 | 0.00 | 0.00 | 74 | 1012.7 |
| 20260901160805 | 84 | 123 | 1.0 | 3.0 | 0.00 | 0.00 | 0.00 | 73 | 1012.7 |
| 20260901160306 | 83 | 122 | 1.0 | 3.0 | 0.00 | 0.00 | 0.00 | 75 | 1012.9 |
| 20260901155805 | 83 | 140 | 0.0 | 5.0 | 0.00 | 0.00 | 0.00 | 77 | 1012.9 |
| 20260901155306 | 83 | 139 | 1.0 | 3.0 | 0.00 | 0.00 | 0.00 | 78 | 1013.0 |
| 20260901154805 | 82 | 132 | 0.0 | 0.0 | 0.00 | 0.00 | 0.00 | 79 | 1012.9 |
| 20260901154304 | 82 | 133 | 1.0 | 5.0 | 0.00 | 0.00 | 0.00 | 79 | 1013.1 |
| 20260901153805 | 82 | 137 | 1.0 | 5.0 | 0.00 | 0.00 | 0.00 | 79 | 1012.1 |
| 20260901153305 | 82 | 145 | 1.0 | 8.0 | 0.00 | 0.00 | 0.00 | 79 | 1012.7 |
| 20260901152805 | 82 | 139 | 1.0 | 3.0 | 0.00 | 0.00 | 0.00 | 79 | 1012.4 |
| 20260901152306 | 82 | 145 | 0.0 | 0.0 | 0.00 | 0.00 | 0.00 | 78 | 1013.2 |
| 20260901151805 | 82 | 144 | 1.0 | 3.0 | 0.00 | 0.00 | 0.00 | 78 | 1013.8 |
| 20260901151305 | 82 | 120 | 0.0 | 0.0 | 0.00 | 0.00 | 0.00 | 76 | 1013.7 |
| 20260901150805 | 82 | 120 | 0.0 | 1.0 | 0.00 | 0.00 | 0.00 | 76 | 1013.2 |
| 20260901150305 | 83 | 158 | 1.0 | 2.0 | 0.00 | 0.00 | 0.00 | 75 | 1013.2 |
| 20260901145805 | 84 | 134 | 1.0 | 6.0 | 0.00 | 0.00 | 0.00 | 73 | 1013.1 |
| 20260901145306 | 84 | 150 | 2.0 | 6.0 | 0.00 | 0.00 | 0.00 | 71 | 1013.5 |
| 20260901144805 | 84 | 154 | 2.0 | 6.0 | 0.00 | 0.00 | 0.00 | 70 | 1013.9 |
| 20260901144304 | 84 | 155 | 1.0 | 6.0 | 0.00 | 0.00 | 0.00 | 70 | 1013.8 |
| 20260901143804 | 84 | 156 | 2.0 | 7.0 | 0.00 | 0.00 | 0.00 | 70 | 1013.5 |
| 20260901143305 | 84 | 151 | 1.0 | 3.0 | 0.00 | 0.00 | 0.00 | 71 | 1013.6 |
| 20260901142805 | 84 | 161 | 0.0 | 5.0 | 0.00 | 0.00 | 0.00 | 71 | 1013.5 |
| 20260901141305 | 85 | 124 | 1.0 | 6.0 | 0.00 | 0.00 | 0.00 | 65 | 1013.4 |
| 20260901140805 | 85 | 126 | 0.0 | 0.0 | 0.00 | 0.00 | 0.00 | 63 | 1014.0 |
| 20260901135804 | 86 | 127 | 0.0 | 3.0 | 0.00 | 0.00 | 0.00 | 60 | 1013.9 |
| 20260901135305 | 86 | 137 | 1.0 | 2.0 | 0.00 | 0.00 | 0.00 | 61 | 1014.0 |
| 20260901134805 | 86 | 156 | 0.0 | 0.0 | 0.00 | 0.00 | 0.00 | 61 | 1014.5 |
| 20260901134305 | 86 | 157 | 0.0 | 0.0 | 0.00 | 0.00 | 0.00 | 63 | 1014.5 |
| 20260901133805 | 86 | 157 | 0.0 | 0.0 | 0.00 | 0.00 | 0.00 | 62 | 1014.7 |
| 20260901132805 | 86 | 157 | 1.0 | 3.0 | 0.00 | 0.00 | 0.00 | 64 | 1014.8 |
| 20260901132307 | 86 | 153 | 0.0 | 3.0 | 0.00 | 0.00 | 0.00 | 63 | 1014.8 |
| 20260901131805 | 86 | 152 | 1.0 | 5.0 | 0.00 | 0.00 | 0.00 | 64 | 1014.9 |
| 20260901131305 | 86 | 145 | 0.0 | 3.0 | 0.00 | 0.00 | 0.00 | 67 | 1014.9 |
| 20260901130805 | 85 | 142 | 1.0 | 5.0 | 0.00 | 0.00 | 0.00 | 65 | 1014.9 |
| 20260901130304 | 85 | 136 | 0.0 | 3.0 | 0.00 | 0.00 | 0.00 | 67 | 1014.8 |
| 20260901125308 | 85 | 136 | 1.0 | 3.0 | 0.00 | 0.00 | 0.00 | 68 | 1014.3 |
| 20260901124804 | 86 | 115 | 0.0 | 3.0 | 0.00 | 0.00 | 0.00 | 65 | 1014.3 |
| 20260901124304 | 85 | 78 | 0.0 | 3.0 | 0.00 | 0.00 | 0.00 | 67 | 1014.4 |
| 20260901123805 | 85 | 138 | 0.0 | 2.0 | 0.00 | 0.00 | 0.00 | 66 | 1014.4 |
| 20260901123305 | 85 | 138 | 1.0 | 3.0 | 0.00 | 0.00 | 0.00 | 67 | 1014.5 |
| 20260901122805 | 86 | 135 | 1.0 | 5.0 | 0.00 | 0.00 | 0.00 | 66 | 1014.4 |
| 20260901122306 | 86 | 147 | 1.0 | 3.0 | 0.00 | 0.00 | 0.00 | 67 | 1014.2 |
| 20260901121305 | 86 | 134 | 1.0 | 5.0 | 0.00 | 0.00 | 0.00 | 65 | 1014.5 |
| 20260901120805 | 86 | 150 | 1.0 | 5.0 | 0.00 | 0.00 | 0.00 | 64 | 1014.5 |
| 20260901120305 | 86 | 121 | 1.0 | 5.0 | 0.00 | 0.00 | 0.00 | 64 | 1014.6 |
| 20260901115805 | 86 | 145 | 1.0 | 6.0 | 0.00 | 0.00 | 0.00 | 64 | 1014.8 |
| 20260901115306 | 87 | 147 | 2.0 | 6.0 | 0.00 | 0.00 | 0.00 | 64 | 1014.9 |
| 20260901114805 | 87 | 149 | 1.0 | 5.0 | 0.00 | 0.00 | 0.00 | 64 | 1014.9 |
| 20260901114305 | 86 | 124 | 1.0 | 5.0 | 0.00 | 0.00 | 0.00 | 66 | 1014.7 |
| 20260901113805 | 86 | 129 | 2.0 | 5.0 | 0.00 | 0.00 | 0.00 | 66 | 1014.9 |
| 20260901112804 | 86 | 118 | 0.0 | 2.0 | 0.00 | 0.00 | 0.00 | 66 | 1015.2 |
| 20260901112306 | 86 | 118 | 0.0 | 3.0 | 0.00 | 0.00 | 0.00 | 66 | 1015.1 |
| 20260901111804 | 85 | 107 | 0.0 | 2.0 | 0.00 | 0.00 | 0.00 | 66 | 1015.1 |
| 20260901110804 | 86 | 144 | 1.0 | 2.0 | 0.00 | 0.00 | 0.00 | 65 | 1015.3 |
| 20260901110304 | 86 | 100 | 0.0 | 3.0 | 0.00 | 0.00 | 0.00 | 65 | 1015.4 |
| 20260901105305 | 87 | 117 | 1.0 | 5.0 | 0.00 | 0.00 | 0.00 | 63 | 1015.1 |
| 20260901104804 | 88 | 113 | 1.0 | 7.0 | 0.00 | 0.00 | 0.00 | 64 | 1014.9 |
| 20260901104305 | 87 | 143 | 1.0 | 6.0 | 0.00 | 0.00 | 0.00 | 66 | 1015.1 |
| 20260901103804 | 87 | 136 | 1.0 | 3.0 | 0.00 | 0.00 | 0.00 | 65 | 1015.0 |
| 20260901103305 | 87 | 150 | 2.0 | 9.0 | 0.00 | 0.00 | 0.00 | 65 | 1015.1 |
| 20260901102805 | 87 | 144 | 1.0 | 9.0 | 0.00 | 0.00 | 0.00 | 66 | 1015.2 |
| 20260901102306 | 86 | 139 | 3.0 | 6.0 | 0.00 | 0.00 | 0.00 | 66 | 1015.4 |
| 20260901101805 | 86 | 139 | 0.0 | 0.0 | 0.00 | 0.00 | 0.00 | 66 | 1015.4 |
| 20260901101305 | 86 | 153 | 0.0 | 5.0 | 0.00 | 0.00 | 0.00 | 67 | 1015.4 |
| 20260901100804 | 86 | 133 | 1.0 | 6.0 | 0.00 | 0.00 | 0.00 | 67 | 1015.5 |
| 20260901100305 | 87 | 127 | 2.0 | 7.0 | 0.00 | 0.00 | 0.00 | 65 | 1015.5 |
| 20260901095306 | 87 | 101 | 0.0 | 6.0 | 0.00 | 0.00 | 0.00 | 65 | 1015.4 |
| 20260901094805 | 87 | 157 | 2.0 | 7.0 | 0.00 | 0.00 | 0.00 | 67 | 1015.4 |
| 20260901093804 | 87 | 138 | 1.0 | 5.0 | 0.00 | 0.00 | 0.00 | 67 | 1015.3 |